Location: Gibsondale
(40.9931°N, 80.2478°W)
Time: 20:02:33
(UTC+00:00)

Cosmos 1400 Rocket - Pass Details

Date: 29 October 2020
Orbit: 521 x 568 km, 81.2° (Epoch: 03 December)

Event Time Altitude Azimuth Distance (km) Brightness Sun altitude
Rises 23:27:36 0° 201° (SSW) 2,751 6.8 -13.3°
Reaches altitude 10° 23:29:50 10° 207° (SSW) 1,856 6.0 -13.7°
Maximum altitude 23:33:48 49° 282° (WNW) 735 3.9 -14.5°
Drops below altitude 10° 23:37:47 10° 358° (N) 1,851 5.5 -15.2°
Sets 23:40:01 0° 4° (N) 2,744 6.3 -15.6°
